Regional Weather Roundup
Issued by NWS

Home | Current Version | Previous Version | Text Only | Print | Product List | Glossary On
Versions: 1 2 3 4 5 6 7 8 9 10 11 12 13 14 15 16 17 18 19 20 21 22 23 24 25 26 27 28 29 30 31 32 33 34 35 36 37 38 39 40 41 42 43 44 45 46 47 48 49 50
000
ASUS44 KJAN 220710
RWRMS

MISSISSIPPI HOURLY WEATHER ROUNDUP
NATIONAL WEATHER SERVICE JACKSON MS
200 AM CDT SAT JUL 22 2017

NOTE: "FAIR: INDICATES FEW OR NO CLOUDS BELOW 12,000 FEET WITH NO
SIGNIFICANT WEATHER AND/OR OBSTRUCTIONS TO VISIBILITY.

MSZ001>002-007>008-010>013-018>021-025>028-034>036-220800-
NORTHWEST MISSISSIPPI

CITY           SKY/WX    TMP DP  RH WIND       PRES   REMARKS
BATESVILLE     FAIR      76  74  94 CALM      29.96F
CLARKSDALE       N/A     79  79 100 S5        29.96S
CLEVELAND      FAIR      76  76 100 CALM      29.95F
GREENWOOD      CLEAR     76  75  97 CALM      29.95F
GREENVILLE     CLEAR     76  72  87 S5        29.95F
OXFORD         FAIR      77  73  88 CALM      29.99S
TUNICA           N/A     77  73  88 CALM      29.96F
WINONA         FAIR      75  75 100 CALM      29.96F
$$

MSZ003>006-009-014>017-022>024-029>033-037>039-220800-
NORTHEAST MISSISSIPPI

CITY           SKY/WX    TMP DP  RH WIND       PRES   REMARKS
COLUMBUS AFB   CLEAR     76  75  97 SE5       29.96F
CORINTH        FAIR      79  75  89 CALM      29.97R
GOLDN TRIANGLE CLEAR     75  68  78 SE3         N/A
STARKVILLE     FAIR      73  72  94 CALM      29.98S
TUPELO         CLEAR     80  71  74 S5        29.96F
$$

MSZ040-058-220800-
CENTRAL MISSISSIPPI

CITY           SKY/WX    TMP DP  RH WIND       PRES   REMARKS
JACKSON INTL   PTCLDY    74  73  97 S5        29.98F
JACKSON HAWKNS PTCLDY    75  74  96 S5        29.98F
MADISON        FAIR      73  72  94 CALM      29.98S
MERIDIAN KEY   CLEAR     74  72  93 S3        29.98S
MERIDIAN NAS   PTCLDY    74  69  85 CALM      29.98F
RAYMOND        FAIR      75  73  94 CALM      29.98R
VICKSBURG VKS    N/A     75  72  88 S3        29.94S
$$

MSZ059>079-220800-
SOUTH MISSISSIPPI

CITY           SKY/WX    TMP DP  RH WIND       PRES   REMARKS
COLUMBIA       FAIR      72  72 100 CALM      30.02F
HATTIESBURG    PTCLDY    74  72  93 SW3       29.99F
LAUREL         FAIR      74  74 100 CALM      29.99S
MCCOMB         FOG       73  72  96 SE3       30.00S VSB 1/4
NATCHEZ        NOT AVBL
PINE BELT      PTCLDY    73  72  94 SW6       29.99F
$$

MSZ080>082-220800-
COASTAL MISSISSIPPI

CITY           SKY/WX    TMP DP  RH WIND       PRES   REMARKS
BILOXI         CLEAR     77  73  86 NE3       29.97F
PASCAGOULA     CLEAR     75  73  93 CALM      29.98F
GULFPORT       PTCLDY    76  74  93 CALM      29.97F
$$

LAZ007>009-015>016-023>026-220800-
NORTHEAST LOUISIANA

CITY           SKY/WX    TMP DP  RH WIND       PRES   REMARKS
BASTROP        FAIR      78  78  98 CALM      29.97S
TALLULAH/VBURG CLOUDY    75  72  90 S3        29.97S
VIDALIA        FAIR      75  74  98 CALM      29.97S
$$



USA.gov is the U.S. government's official web portal to all federal, state and local government web resources and services.